This is the latest recevied weather packets stored in our database for station/object AE5HO. If no packets are shown the sender has not sent any weather packets the latest 10 day(s).
| Time | Temp. | Humidity | Pressure | Rain* | Wind** | Luminosity | Snow |
|---|---|---|---|---|---|---|---|
| 1788019828 | 33.89° C | 52% | 1018.5 hPa | 0 mm | - | 595 W/m² | - |
| 1788019528 | 33.89° C | 52% | 1018.4 hPa | 0 mm | - | 601 W/m² | - |
| 1788019227 | 34.44° C | 52% | 1018.7 hPa | 0 mm | - | 608 W/m² | - |
| 1788018925 | 35° C | 52% | 1018.6 hPa | 0 mm | - | 546 W/m² | - |
| 1788018621 | 34.44° C | 52% | 1018.6 hPa | 0 mm | - | 531 W/m² | - |
| 1788018320 | 33.89° C | 54% | 1018.7 hPa | 0 mm | - | 526 W/m² | - |
| 1788018015 | 33.33° C | 56% | 1018.8 hPa | 0 mm | - | 500 W/m² | - |
| 1788017712 | 32.78° C | 56% | 1018.5 hPa | 0 mm | - | 437 W/m² | - |
| 1788017408 | 32.78° C | 57% | 1018.6 hPa | 0 mm | - | 412 W/m² | - |
| 1788017105 | 32.22° C | 59% | 1018.7 hPa | 0 mm | - | 165 W/m² | - |
| 1788016803 | 31.67° C | 59% | 1018.7 hPa | 0 mm | - | 444 W/m² | - |
| 1788016502 | 31.67° C | 60% | 1018.6 hPa | 0 mm | - | 385 W/m² | - |
| 1788016197 | 31.11° C | 61% | 1018.5 hPa | 0 mm | - | 372 W/m² | - |
| 1788015896 | 31.11° C | 61% | 1018.8 hPa | 0 mm | - | 104 W/m² | - |
| 1788015595 | 30.56° C | 63% | 1018.4 hPa | 0 mm | - | 127 W/m² | - |
| 1788015291 | 30° C | 62% | 1018.6 hPa | 0 mm | - | 54 W/m² | - |
| 1788014990 | 30° C | 63% | 1018.7 hPa | 0 mm | - | 54 W/m² | - |
| 1788014689 | 30° C | 64% | 1018.6 hPa | 0 mm | - | 65 W/m² | - |
| 1788014384 | 30° C | 65% | 1018.5 hPa | 0 mm | - | 75 W/m² | - |
| 1788014080 | 29.44° C | 66% | 1018.7 hPa | 0 mm | - | 49 W/m² | - |
| 1788013778 | 29.44° C | 67% | 1018.6 hPa | 0 mm | - | 48 W/m² | - |
| 1788013474 | 29.44° C | 67% | 1018.6 hPa | 0 mm | - | 49 W/m² | - |
| 1788013173 | 28.89° C | 68% | 1018.5 hPa | 0 mm | - | 44 W/m² | - |
| 1788012872 | 28.89° C | 69% | 1018.7 hPa | 0 mm | - | 43 W/m² | - |
| 1788012567 | 28.89° C | 69% | 1018.4 hPa | 0 mm | - | 40 W/m² | - |
* Rain latest hour (hover to see other rain measurements)
** Current wind speed in m/s (hover to see current wind gust speed)